Theta_e
293 293 293 294 294 294 297 299 292 301 301 297 292 288 298 299 299 299 299 300 299 299 299 299 300 301 302 303 305 306 304 305 307 310 311 310 309 310 311 310 314 314 316 310
293 293 293 293 293 294 298 300 299 301 300 289 288 295 298 298 299 298 298 298 299 299 299 297 300 300 300 303 305 305 305 307 306 306 310 306 310 312 311 310 312 309 314 311
294 293 293 293 293 294 298 299 291 299 301 299 297 297 297 298 298 298 299 299 299 299 299 300 300 300 300 302 302 303 305 304 304 305 307 307 307 310 311 307 305 310 313 311
294 293 293 293 293 293 298 298 293 297 289 293 295 296 297 298 298 299 299 297 298 298 294 299 300 299 300 300 302 303 303 300 303 303 306 304 305 307 309 311 311 310 311 313
293 294 295 295 295 296 298 297 298 297 297 297 296 295 296 298 298 298 297 297 297 297 292 295 296 299 300 300 301 300 300 300 301 302 301 301 303 306 306 309 310 310 309 309
294 295 295 295 295 297 298 298 298 298 296 295 294 295 297 299 298 298 298 298 296 295 297 298 298 299 299 299 300 300 300 297 299 300 300 301 299 303 304 307 309 309 309 307
295 295 295 295 295 296 297 297 298 296 289 292 295 296 298 298 298 298 298 298 298 299 298 299 298 298 298 299 299 299 296 298 298 300 299 292 304 305 304 303 303 304 307 307
295 295 295 294 294 294 297 297 297 296 292 294 295 297 297 297 298 297 298 298 298 299 298 295 298 297 298 298 300 299 298 297 295 295 301 301 305 305 304 303 303 302 302 303
294 293 293 293 293 293 295 297 298 297 294 291 296 296 297 296 294 294 298 298 298 298 294 292 297 298 298 299 300 301 300 298 295 295 298 299 305 303 303 303 305 303 301 301
291 291 290 291 292 293 295 298 297 297 296 296 297 294 296 298 296 292 295 298 298 298 292 295 298 301 301 301 301 300 299 296 292 295 292 296 301 302 303 304 303 302 300 300
291 290 290 290 290 290 292 295 296 297 296 295 296 297 296 296 297 296 298 294 295 293 294 293 297 300 301 302 302 301 298 294 291 295 296 296 301 302 304 301 300 299 298 299
291 291 290 290 290 290 290 293 296 296 296 295 295 298 299 299 299 299 299 297 297 297 290 288 295 299 300 301 301 301 302 303 303 297 298 300 301 302 301 301 298 298 298 297
291 290 290 289 289 289 290 290 295 296 296 295 296 299 297 299 300 300 299 298 299 299 299 294 294 298 294 299 297 299 301 302 301 302 300 300 299 301 299 298 297 297 297 296
291 290 289 288 288 289 289 290 296 296 296 295 295 295 298 298 300 300 299 300 300 299 299 298 293 297 298 298 298 297 297 299 300 301 301 301 301 300 299 297 297 296 296 296
291 289 288 288 289 289 289 290 295 296 296 293 295 296 297 300 299 300 300 300 300 299 297 293 296 296 297 295 295 296 298 296 296 297 299 299 298 298 297 297 296 295 295 295
290 289 289 288 288 289 290 296 297 295 296 296 292 295 298 299 300 300 300 300 300 299 298 296 298 299 299 297 296 297 299 299 299 298 298 298 297 297 296 296 295 295 294 294
290 289 289 289 288 289 293 296 297 297 296 295 294 294 298 299 299 299 300 300 300 299 298 296 297 298 299 295 297 298 299 299 299 298 298 297 297 296 296 296 295 294 293 293
289 289 289 288 289 289 289 294 297 296 295 296 295 294 296 299 299 298 300 300 300 300 299 298 296 298 297 296 297 299 299 299 298 298 298 297 296 296 296 296 295 294 293 292
289 289 291 290 292 296 297 297 297 295 294 295 295 293 291 299 299 299 299 300 294 299 296 296 297 295 297 297 298 299 299 298 298 298 298 297 297 296 296 295 295 294 292 292
291 294 296 294 296 297 296 295 294 295 295 295 294 296 293 298 298 297 296 297 294 295 296 298 296 296 298 299 298 299 298 298 297 297 297 297 296 296 295 294 294 294 293 292
295 296 296 297 296 294 294 296 295 295 294 297 297 296 293 297 295 293 296 291 292 294 295 296 296 294 296 299 297 298 298 297 297 296 296 296 296 295 295 295 293 292 291 290
295 294 293 295 295 295 295 291 294 294 296 296 296 297 297 298 299 295 294 296 294 296 294 291 291 294 299 298 297 298 297 297 297 296 296 296 296 295 294 294 293 292 291 290
293 293 293 294 293 293 293 287 295 290 295 297 299 295 297 298 297 296 294 292 292 294 288 291 293 297 299 298 297 297 297 297 296 296 296 295 295 294 293 293 293 293 292 291
294 294 288 290 287 291 293 294 293 296 297 297 297 298 298 298 295 291 293 295 295 292 289 295 292 298 298 297 296 296 296 296 295 293 293 293 294 293 292 292 292 292 292 291
294 295 291 292 293 294 295 296 296 297 297 298 297 297 297 293 293 294 294 295 293 293 293 289 297 298 298 297 297 296 294 293 292 291 292 292 292 291 290 290 290 291 292 292
294 294 293 294 294 293 296 297 297 298 298 298 298 294 291 293 295 296 293 296 292 291 293 298 298 298 297 297 297 295 293 292 292 291 291 291 289 289 289 289 290 289 289 289
293 293 294 294 294 294 295 298 298 298 298 291 293 291 293 292 292 292 295 293 291 298 299 299 298 298 297 297 296 294 293 291 290 290 288 288 288 287 287 287 286 287 287 287
Wind_Speed
12 11 9 8 7 4 5 7 3 2 1 3 1 1 4 10 17 18 9 5 5 3 9 6 7 8 11 22 5 9 4 4 6 4 2 9 4 6 4 3 2 3 2 3
12 11 9 9 9 6 7 5 2 5 4 1 3 5 6 12 10 10 5 4 3 3 4 4 7 9 14 17 8 4 4 4 4 3 1 6 5 5 3 2 2 5 4 3
13 12 10 10 10 6 6 3 2 2 7 3 1 4 6 5 10 10 7 5 4 3 4 4 6 8 5 12 8 14 5 1 2 4 5 4 5 7 5 1 2 3 3 4
13 12 11 10 10 4 3 0 2 1 2 4 3 4 3 9 7 2 7 4 5 6 3 4 4 6 7 9 8 8 5 2 4 9 3 5 8 6 5 4 1 4 6 4
13 12 12 11 7 5 3 2 2 1 4 7 4 3 3 7 9 3 5 5 13 6 4 7 11 8 4 6 6 8 8 4 7 5 11 14 6 9 6 6 7 6 7 5
13 13 12 9 6 6 4 3 2 3 3 2 2 2 6 6 10 6 12 9 5 4 7 14 20 20 21 13 11 11 3 1 4 5 11 9 6 9 9 11 9 4 3 3
14 11 7 5 6 4 4 1 3 2 3 0 2 5 7 7 9 6 10 13 3 10 24 22 19 21 17 13 15 12 4 2 1 3 6 5 8 13 16 23 17 14 13 16
11 8 5 4 4 3 4 1 2 2 2 4 5 6 4 13 14 4 7 12 20 20 11 4 6 4 6 5 6 1 9 3 1 2 2 5 7 11 10 11 16 16 13 12
8 5 3 2 1 1 1 3 1 2 2 4 4 5 4 3 4 6 6 23 14 18 3 4 2 3 4 5 7 4 5 5 4 3 3 3 6 13 22 5 6 12 11 11
6 4 2 1 1 1 2 3 1 2 5 5 4 2 3 5 5 2 7 17 9 14 4 3 2 2 7 4 5 5 4 3 4 2 1 4 10 12 12 3 3 3 6 12
4 2 1 0 1 0 1 3 2 3 4 15 7 8 16 13 4 1 9 6 6 5 7 3 3 2 3 4 4 5 2 1 1 2 1 3 15 7 5 4 5 7 20 17
1 1 2 3 3 2 2 3 4 4 7 11 21 10 7 9 5 7 4 2 3 1 3 2 3 2 3 6 4 6 2 4 2 2 2 4 8 7 3 7 12 16 17 16
1 3 4 4 4 4 5 2 2 5 5 12 3 1 7 3 4 4 3 2 2 2 3 3 2 3 2 3 3 3 1 2 3 1 4 2 15 6 12 14 16 13 13 13
3 4 4 4 4 5 6 4 5 2 4 3 6 11 10 10 7 7 6 9 7 7 5 3 1 2 3 3 4 1 3 2 1 1 4 5 9 5 1 11 10 12 10 9
5 5 5 5 5 5 5 5 5 3 4 2 11 14 5 3 6 7 8 8 6 6 1 0 3 4 1 3 1 4 4 3 3 3 4 3 5 11 8 9 10 8 6 8
6 5 5 4 4 3 3 1 6 8 2 4 3 8 5 3 8 8 9 9 7 6 4 4 5 7 2 2 1 4 12 10 2 3 9 12 9 11 7 7 5 5 6 9
7 6 6 4 4 5 4 3 8 9 5 3 5 6 4 2 5 6 8 9 9 8 4 4 4 4 3 1 2 2 7 6 5 1 8 6 7 7 5 5 6 8 5 7
6 5 4 3 3 4 7 8 6 8 4 3 2 4 5 3 2 3 4 4 5 6 4 3 3 3 2 1 3 3 6 3 5 2 7 9 11 7 4 5 8 10 7 10
3 1 3 4 3 2 3 2 6 9 4 2 3 2 3 2 2 4 2 3 1 3 3 3 3 1 3 5 4 3 5 3 3 7 5 4 4 3 3 6 8 10 10 12
2 5 3 3 2 3 3 2 4 4 5 6 4 5 2 2 2 2 2 1 2 1 4 2 3 3 3 5 4 5 4 6 6 5 2 1 0 1 2 3 7 11 14 16
5 3 2 4 2 2 3 3 4 5 2 7 7 13 4 4 2 3 3 2 1 1 4 2 2 3 3 5 5 4 2 4 5 3 3 1 2 3 4 4 10 14 16 16
5 2 2 4 3 4 2 2 2 4 4 6 6 8 12 4 5 2 2 1 2 4 3 3 3 3 7 6 8 4 4 1 0 2 4 4 4 4 8 11 15 15 15 14
4 2 1 3 3 2 5 4 3 2 4 5 7 1 4 3 2 2 2 1 4 5 3 3 4 5 9 7 8 4 1 3 5 7 8 9 10 11 14 16 17 17 16 13
5 5 2 4 3 5 5 4 4 7 6 8 8 5 3 2 2 2 1 3 2 3 1 4 3 13 10 7 5 4 3 6 9 11 13 13 12 13 15 19 19 17 19 18
4 5 4 6 10 8 6 12 11 16 3 8 6 3 3 1 1 2 1 2 3 4 4 3 8 12 10 10 8 4 5 8 11 10 10 10 11 13 16 16 17 18 18 16
4 7 3 7 1 8 12 11 11 5 5 8 4 2 2 3 3 3 5 3 5 4 3 9 12 13 14 12 8 6 6 8 9 10 9 9 12 13 13 13 11 13 16 18
5 6 12 16 10 8 8 3 5 7 6 2 3 3 9 1 2 2 4 4 4 6 8 12 14 15 15 12 9 7 7 7 7 5 8 9 10 12 15 17 19 20 21 22
Wind_Direction
119 111 110 111 111 71 105 76 52 148 211 26 62 147 215 288 295 310 297 251 270 289 315 301 319 329 305 334 346 307 279 276 282 306 19 55 22 1 348 86 310 351 310 68
120 112 113 112 98 76 80 67 355 188 229 138 292 277 268 278 288 304 291 273 268 238 280 318 317 319 315 355 11 343 328 339 303 330 325 15 28 345 333 330 333 20 321 102
118 110 109 107 98 78 75 53 25 191 225 254 219 294 282 307 300 293 333 273 298 311 285 286 281 308 314 330 318 331 360 237 44 351 298 294 325 339 313 333 77 213 36 94
112 103 101 100 93 73 75 344 252 245 262 306 288 250 278 312 328 240 304 322 325 293 280 294 279 310 309 300 281 329 337 299 324 298 249 317 303 307 317 26 215 67 31 47
108 99 89 85 89 130 138 226 229 309 289 285 314 333 287 317 341 251 292 294 306 280 195 216 280 284 277 276 307 343 333 317 349 296 340 344 325 353 341 97 48 62 63 49
104 85 77 80 99 155 178 219 231 267 251 286 53 262 311 316 332 289 311 315 299 288 280 286 273 267 264 248 268 291 286 265 6 301 323 319 12 356 51 47 86 117 97 285
92 86 84 99 111 140 160 222 284 232 267 136 237 300 295 316 322 292 301 347 356 303 315 294 283 286 266 254 252 214 239 184 165 265 333 52 60 29 72 67 42 40 80 82
94 105 140 122 103 97 148 158 245 257 272 230 299 309 308 318 331 302 291 331 328 327 313 349 332 327 357 329 359 106 192 127 342 87 313 273 34 16 17 60 43 30 61 81
129 150 148 137 124 94 171 160 302 236 163 252 331 312 314 303 315 330 296 337 345 2 46 47 3 342 318 325 328 24 90 95 118 35 43 332 33 335 321 288 64 346 32 49
145 145 152 110 86 95 157 168 248 244 260 276 302 230 286 313 341 272 304 334 337 3 12 13 341 324 337 340 331 330 329 14 109 142 173 312 336 315 298 45 77 292 44 45
142 146 123 345 338 317 144 216 203 280 258 283 252 280 297 298 265 285 307 352 353 357 24 44 318 305 337 307 340 351 16 340 312 19 43 335 341 335 57 144 203 60 66 63
163 269 294 286 280 294 289 192 235 283 273 267 298 304 343 277 280 273 304 280 297 236 35 21 312 330 310 334 354 323 19 360 44 114 201 343 8 351 178 158 90 64 57 46
289 313 304 293 280 266 270 270 225 307 288 305 285 169 330 279 262 269 259 299 306 282 292 205 258 303 81 342 290 293 317 327 36 104 18 59 64 314 75 82 78 59 43 39
322 321 318 300 283 262 257 261 205 275 303 297 277 319 326 209 216 238 276 291 271 285 263 257 218 244 205 265 272 257 218 9 65 50 233 296 264 261 65 76 46 30 47 37
323 325 315 301 280 264 253 255 202 205 277 266 293 323 344 178 234 225 233 257 253 267 272 164 247 257 328 268 344 337 323 216 129 226 251 211 115 131 110 73 60 36 15 4
323 319 312 298 277 247 188 72 183 179 222 313 316 315 292 261 250 248 236 253 244 215 210 237 260 264 244 335 254 265 26 59 142 195 113 124 124 123 104 90 61 20 4 356
317 315 308 280 264 215 185 166 166 183 223 267 307 305 279 206 216 253 253 257 235 224 228 230 237 264 195 203 246 312 18 30 49 78 143 92 145 126 107 47 16 350 332 340
307 315 307 265 218 200 219 207 183 195 250 239 258 268 309 222 247 259 231 230 219 227 233 252 231 278 180 252 225 351 27 51 32 91 90 119 122 121 79 19 351 350 348 339
303 353 96 113 136 127 146 171 180 190 230 248 220 212 251 325 267 274 263 233 345 247 216 241 162 246 224 216 194 40 46 37 152 89 97 87 79 57 357 341 341 344 339 335
162 139 95 119 121 180 230 201 192 204 209 224 236 231 274 289 256 281 314 253 225 269 243 208 179 240 242 182 168 103 78 111 111 93 46 304 281 340 294 328 334 330 327 324
148 143 149 130 171 234 209 211 194 194 251 219 232 214 214 241 145 226 222 231 251 327 270 167 263 282 226 185 170 152 95 120 91 77 39 9 265 266 273 309 327 324 321 323
157 172 220 189 205 209 180 228 246 195 233 207 190 211 204 229 210 129 260 233 17 255 335 60 286 256 165 167 158 112 120 132 23 334 326 348 344 335 331 333 337 334 327 317
172 198 179 187 202 198 187 220 229 243 224 199 182 209 166 146 171 83 65 26 241 331 36 231 226 188 168 166 165 161 244 296 298 306 312 319 322 325 330 328 326 322 329 325
177 168 282 182 241 227 204 204 196 228 249 205 170 134 151 136 73 168 116 247 349 322 316 238 242 177 176 179 178 199 263 312 321 321 320 313 311 321 317 314 321 318 318 320
200 205 229 217 225 240 248 240 272 284 230 154 110 85 153 325 83 211 256 301 251 214 234 235 181 184 187 183 187 217 283 310 323 332 339 340 334 330 322 319 319 313 312 308
224 231 245 237 189 263 262 265 257 267 159 130 120 121 69 239 201 177 215 233 222 246 228 175 176 185 187 197 225 270 298 315 321 324 325 325 324 324 329 322 326 331 331 325
230 242 233 259 275 262 271 263 242 221 187 170 129 145 214 84 232 242 204 211 208 207 197 197 207 215 224 230 248 268 296 307 309 306 312 320 320 320 323 330 324 316 314 314